Location: Ch�risy
(50.2331°N, 2.9131°E)
Time: 03:02:50
(UTC+00:00)

Lacrosse 5 - Pass Details

Date: 17 January 2021
Orbit: 715 x 724 km, 57.0° (Epoch: 22 February)

Event Time Altitude Azimuth Distance (km) Brightness Sun altitude
Rises 18:29:08 0° 301° (WNW) 3,124 6.0 -20.5°
Reaches altitude 10° 18:31:31 10° 303° (WNW) 2,202 5.0 -20.8°
Maximum altitude 18:36:35 72° 28° (NNE) 754 1.8 -21.7°
Enters shadow 18:37:38 54° 92° (E) 867 1.9 -21.8°
